This is the latest recevied weather packets stored in our database for station/object KI5QCM-13. If no packets are shown the sender has not sent any weather packets the latest 10 day(s).
| Time | Temp. | Humidity | Pressure | Rain* | Wind** | Luminosity | Snow |
|---|---|---|---|---|---|---|---|
| 1788264663 | 22.78° C | 79% | 1016.6 hPa | 0 mm | - | 8 W/m² | - |
| 1788264027 | 23.33° C | 78% | 1016.3 hPa | 0 mm | - | 2 W/m² | - |
| 1788263431 | 23.33° C | 77% | 1016.4 hPa | 0 mm | - | 0 W/m² | - |
| 1788262855 | 23.33° C | 77% | 1016.2 hPa | 0 mm | - | 0 W/m² | - |
| 1788262279 | 23.89° C | 76% | 1016.1 hPa | 0 mm | - | 0 W/m² | - |
| 1788261639 | 23.33° C | 77% | 1016.1 hPa | 0 mm | - | 0 W/m² | - |
| 1788261047 | 23.33° C | 77% | 1016 hPa | 0 mm | - | 0 W/m² | - |
| 1788260471 | 23.89° C | 76% | 1016 hPa | 0 mm | - | 0 W/m² | - |
| 1788259831 | 23.33° C | 77% | 1016 hPa | 0 mm | - | 0 W/m² | - |
| 1788259255 | 23.33° C | 78% | 1015.9 hPa | 0 mm | - | 0 W/m² | - |
| 1788258648 | 23.89° C | 76% | 1015.8 hPa | 0 mm | - | 0 W/m² | - |
| 1788258071 | 23.33° C | 76% | 1015.7 hPa | 0 mm | - | 0 W/m² | - |
| 1788257463 | 22.78° C | 80% | 1015.8 hPa | 0 mm | - | 0 W/m² | - |
| 1788256871 | 22.78° C | 80% | 1015.6 hPa | 0 mm | - | 0 W/m² | - |
| 1788256279 | 23.33° C | 79% | 1015.5 hPa | 0 mm | - | 0 W/m² | - |
| 1788255639 | 23.33° C | 77% | 1015.5 hPa | 0 mm | - | 0 W/m² | - |
| 1788255063 | 23.89° C | 76% | 1015.4 hPa | 0 mm | - | 0 W/m² | - |
| 1788254423 | 24.44° C | 75% | 1015.4 hPa | 0 mm | - | 0 W/m² | - |
| 1788253843 | 24.44° C | 74% | 1015.5 hPa | 0 mm | - | 0 W/m² | - |
| 1788253255 | 24.44° C | 74% | 1015.4 hPa | 0 mm | - | 0 W/m² | - |
| 1788252679 | 24.44° C | 74% | 1015.2 hPa | 0 mm | - | 0 W/m² | - |
| 1788252039 | 24.44° C | 75% | 1015.3 hPa | 0 mm | - | 0 W/m² | - |
| 1788251447 | 24.44° C | 75% | 1015.2 hPa | 0 mm | - | 0 W/m² | - |
| 1788250871 | 23.89° C | 75% | 1015.1 hPa | 0 mm | - | 0 W/m² | - |
| 1788250231 | 23.89° C | 76% | 1015.1 hPa | 0 mm | - | 0 W/m² | - |
* Rain latest hour (hover to see other rain measurements)
** Current wind speed in m/s (hover to see current wind gust speed)